This is the latest recevied weather packets stored in our database for station/object N6WDO. If no packets are shown the sender has not sent any weather packets the latest 10 day(s).
| Time | Temp. | Humidity | Pressure | Rain* | Wind** | Luminosity | Snow |
|---|---|---|---|---|---|---|---|
| 1777669616 | 27.22° C | 43% | 1015.6 hPa | 0 mm | - | 694 W/m² | - |
| 1777669313 | 28.33° C | 40% | 1015.4 hPa | 0 mm | - | 698 W/m² | - |
| 1777669009 | 27.22° C | 45% | 1015.3 hPa | 0 mm | - | 709 W/m² | - |
| 1777668707 | 26.67° C | 43% | 1015.5 hPa | 0 mm | - | 693 W/m² | - |
| 1777668403 | 26.11° C | 44% | 1015.7 hPa | 0 mm | - | 698 W/m² | - |
| 1777668099 | 26.67° C | 45% | 1015.6 hPa | 0 mm | - | 698 W/m² | - |
| 1777667796 | 26.11° C | 44% | 1015.8 hPa | 0 mm | - | 716 W/m² | - |
| 1777667494 | 27.78° C | 42% | 1015.6 hPa | 0 mm | - | 696 W/m² | - |
| 1777667190 | 27.22° C | 42% | 1015.6 hPa | 0 mm | - | 715 W/m² | - |
| 1777666887 | 26.67° C | 43% | 1015.8 hPa | 0 mm | - | 723 W/m² | - |
| 1777666584 | 26.11° C | 42% | 1015.7 hPa | 0 mm | - | 734 W/m² | - |
| 1777666280 | 27.22° C | 44% | 1015.8 hPa | 0 mm | - | 733 W/m² | - |
| 1777665977 | 26.67° C | 47% | 1015.8 hPa | 0 mm | - | 733 W/m² | - |
| 1777665675 | 26.11° C | 46% | 1015.7 hPa | 0 mm | - | 733 W/m² | - |
| 1777665373 | 26.11° C | 43% | 1015.8 hPa | 0 mm | - | 733 W/m² | - |
| 1777665068 | 26.67° C | 45% | 1015.8 hPa | 0 mm | - | 734 W/m² | - |
| 1777664764 | 26.67° C | 46% | 1015.9 hPa | 0 mm | - | 729 W/m² | - |
| 1777664459 | 26.11° C | 42% | 1015.9 hPa | 0 mm | - | 733 W/m² | - |
| 1777664157 | 26.67° C | 43% | 1016.1 hPa | 0 mm | - | 725 W/m² | - |
| 1777663856 | 25.56° C | 39% | 1016.5 hPa | 0 mm | - | 733 W/m² | - |
| 1777663551 | 25.56° C | 42% | 1016.3 hPa | 0 mm | - | 732 W/m² | - |
| 1777663250 | 25.56° C | 40% | 1016.3 hPa | 0 mm | - | 721 W/m² | - |
| 1777662946 | 26.11° C | 42% | 1016.3 hPa | 0 mm | - | 726 W/m² | - |
| 1777662644 | 26.11° C | 40% | 1016.3 hPa | 0 mm | - | 722 W/m² | - |
| 1777662339 | 25.56° C | 42% | 1016.3 hPa | 0 mm | - | 717 W/m² | - |
* Rain latest hour (hover to see other rain measurements)
** Current wind speed in m/s (hover to see current wind gust speed)